• Join FlightAware (Why Join?)
  • Login
  • US Flag 
12:42PM EST


 

Airport Tracker/Info


-or-


 

Live Flight TrackerFlight Track Log ✈ N23WJ ✈ 02-Jun-2013 ✈ MYEH / ELH - KTMB

Flight Track Log - Related Links

Times and Time Zones

All times are in EDT time to prevent confusion due to time zone crossing. See the N23WJ flight status page for this flight to view local times or setup timezone preferences in your user account.

Time Position Orientation Groundspeed Altitude Reporting Facility
EDT Latitude Longitude Course Direction KTS MPH feet Rate Location/Type
10:25AM 25.5053 -77.1650 278° West 265 305 16,500  Level Miami Center
10:26AM 25.5072 -77.2364 272° West 236 272 16,500 600 Level Miami Center
10:27AM 25.4541 -77.0965 263° West  Level FlightAware Approximate
10:27AM 25.4922 -77.3053 256° West 231 266 17,800  Level Miami Center
10:28AM 25.4500 -77.1680 270° West  Level FlightAware Approximate
10:28AM 25.4775 -77.3744 257° West 231 266 18,000  Level Miami Center
10:29AM 25.4500 -77.2397 270° West  Level FlightAware Approximate
10:29AM 25.4667 -77.4528 261° West 249 287 18,000  Level Miami Center
10:30AM 25.4561 -77.5264 261° West 261 300 18,000  Level Miami Center
10:31AM 25.4431 -77.6067 260° West 266 306 18,000  Level Miami Center
10:32AM 25.4342 -77.6850 263° West 271 312 18,000  Level Miami Center
10:33AM 25.4256 -77.7561 262° West 260 299 18,000  Level Miami Center
10:34AM 25.4208 -77.8275 266° West 243 280 18,000  Level Miami Center
10:35AM 25.4183 -77.8989 268° West 237 273 18,000  Level Miami Center
10:36AM 25.4136 -77.9678 266° West 232 267 18,000  Level Miami Center
10:37AM 25.4111 -78.0367 268° West 232 267 18,000  Level Miami Center
10:38AM 25.4106 -78.1081 270° West 232 267 18,000  Level Miami Center
10:39AM 25.4078 -78.1794 268° West 232 267 18,000  Level Miami Center
10:40AM 25.4069 -78.2506 269° West 232 267 18,000  Level Miami Center
10:41AM 25.4042 -78.3242 268° West 232 267 18,000  Level Miami Center
10:42AM 25.4056 -78.3956 271° West 232 267 18,000  Level Miami Center
10:43AM 25.4047 -78.4692 269° West 238 274 18,000  Level Miami Center
10:44AM 25.4061 -78.5497 271° West 249 287 18,000  Level Miami Center
10:45AM 25.4072 -78.6303 271° West 261 300 18,000  Level Miami Center
10:46AM 25.4042 -78.7131 268° West 266 306 18,000  Level Miami Center
10:47AM 25.3989 -78.7958 266° West 274 315 18,000  Level Miami Center
10:48AM 25.3997 -78.8786 271° West 274 315 18,000 -60 Level Miami Center
10:49AM 25.3986 -78.9614 269° West 274 315 17,900 -720 Descending Miami Center
10:50AM 25.4036 -79.0467 274° West 274 315 16,600 -1,800 Descending Miami Center
10:51AM 25.3981 -79.1361 266° West 285 328 14,300 -2,340 Descending Miami Center
10:52AM 25.3989 -79.2236 271° West 291 335 12,000 -2,400 Descending Miami Center
10:53AM 25.3936 -79.2972 265° West 269 310 9,600 -2,160 Descending Miami Center
10:53AM 25.3931 -79.3317 269° West 232 267 9,100 -540 Descending Miami Center
10:54AM 25.3944 -79.3708 272° West 251 289 9,100  Level Miami Center
10:54AM 25.3897 -79.4028 261° West 244 281 9,100 -120 Level Miami Center
10:55AM 25.3889 -79.4419 269° West 245 282 9,000 -120 Descending Miami Center
10:55AM 25.3906 -79.4764 273° West 227 261 9,000  Level Miami Center
10:56AM 25.3939 -79.5089 276° West 234 269 9,000  Level Miami Center
10:56AM 25.3892 -79.5478 262° West 220 253 9,000 -120 Level Miami Center
10:57AM 25.3947 -79.5800 281° West 229 264 8,900 -600 Descending Miami Center
10:57AM 25.4067 -79.6194 289° West 240 276 8,400 -720 Descending Miami Center
10:58AM 25.4186 -79.6472 295° West 234 269 8,200 -420 Descending Miami Center
10:58AM 25.4261 -79.6911 281° West 241 277 8,000 -240 Descending Miami Center
10:59AM 25.4361 -79.7144 295° West 234 269 8,000  Level Miami Center
10:59AM 25.4436 -79.7561 281° West 228 262 8,000  Level Miami Center
11:00AM 25.4600 -79.7842 303° West 240 276 8,000  Level Miami Center
11:00AM 25.4672 -79.8281 280° West 228 262 8,000  Level Miami Center
11:01AM 25.4750 -79.8558 287° West 235 270 8,000 -720 Level Miami Center
11:01AM 25.4869 -79.8950 289° West 237 273 7,300 -1,440 Descending Miami Center
11:02AM 25.4986 -79.9300 290° West 240 276 6,600 -1,380 Descending Miami Center
11:02AM 25.5103 -79.9764 286° West 268 308 5,900 -1,140 Descending Miami Center
11:03AM 25.5222 -80.0067 294° West 257 296 5,500 -1,320 Descending Miami Center
11:03AM 25.5339 -80.0461 288° West 263 303 4,700 -960 Descending Miami Center
11:04AM 25.5550 -80.1247 287° West 250 288 4,000 -900 Descending Miami Center
11:05AM 25.5803 -80.2131 288° West 262 302 2,700 -1,080 Descending Miami Center
11:06AM 25.5975 -80.2758 287° West 256 295 2,000 -420 Descending Miami Center
11:07AM 25.6086 -80.3428 280° West 189 217 2,000 -180 Level Miami Center
11:08AM 25.6156 -80.4028 277° West 212 244 1,700 -420 Descending Miami Center
11:09AM 25.6206 -80.4536 276° West 179 206 1,300 -480 Descending Miami Center
11:11AM 25.6476 -80.4332 34° Northeast  Level Estimated
11:18AM 25.6476 -80.4332 312° West  Level Estimated